Location: Pea Ridge
(34.0640°N, 87.8670°W)
Time: 08:50:21
(UTC+00:00)

A-11 Canister half - All Passes

Search period start: 17 December 2025 00:00
Search period end: 27 December 2025 00:00
Orbit: 1526 x 1681 km, 47.3° (Epoch: 16 December)

Date Brightness Start Highest point End Pass type
(mag) Time Alt. Az. Time Alt. Az. Time Alt. Az.
17 Dec - 00:52:27 10° WSW 00:54:54 11° WSW 00:57:22 10° SW visible
17 Dec - 11:56:04 10° SSE 12:00:58 15° ESE 12:05:55 10° E visible
17 Dec - 13:54:54 10° SW 14:04:39 64° SE 14:14:37 10° ENE daylight
17 Dec - 16:00:17 10° W 16:10:06 54° NNW 16:20:02 10° NE daylight
17 Dec - 18:07:57 10° WNW 18:17:15 38° N 18:26:30 10° ENE daylight
17 Dec - 20:14:21 10° NW 20:24:19 57° NNE 20:34:03 10° ESE daylight
17 Dec - 22:19:49 10° WNW 22:29:37 59° SW 22:39:07 10° SSE daylight
18 Dec - 00:29:32 10° W 00:33:10 12° WSW 00:36:45 10° SW visible
18 Dec - 11:35:01 10° SSE 11:39:12 13° ESE 11:43:25 10° E visible
18 Dec - 13:33:09 10° SSW 13:42:49 60° SE 13:52:43 10° ENE daylight
18 Dec - 15:38:21 10° WSW 15:48:10 56° NNW 15:58:08 10° NE daylight
18 Dec - 17:45:59 10° WNW 17:55:16 38° N 18:04:32 10° ENE daylight
18 Dec - 19:52:27 10° NW 20:02:24 55° NNE 20:12:07 10° E daylight
18 Dec - 21:57:54 10° WNW 22:07:48 62° SW 22:17:23 10° SSE daylight
19 Dec - 00:06:56 10° W 00:11:24 14° WSW 00:15:48 10° SSW visible
19 Dec - 11:14:10 10° SE 11:17:27 12° ESE 11:20:44 10° E visible
19 Dec - 13:11:25 10° SSW 13:20:59 57° SE 13:30:48 10° ENE daylight
19 Dec - 15:16:25 10° WSW 15:26:15 58° NNW 15:36:16 10° NE daylight
19 Dec - 17:24:00 10° WNW 17:33:17 38° N 17:42:33 10° ENE daylight
19 Dec - 19:30:34 10° NW 19:40:29 53° NNE 19:50:11 10° E daylight
19 Dec - 21:36:00 10° WNW 21:45:57 65° SW 21:55:38 10° SE daylight
19 Dec - 23:44:31 10° W 23:49:38 15° WSW 23:54:42 10° SSW visible
20 Dec - 10:53:48 10° SE 10:55:41 11° ESE 10:57:35 10° ESE visible
20 Dec - 12:49:41 10° SSW 12:59:09 54° SE 13:08:52 10° ENE daylight
20 Dec - 14:54:28 10° WSW 15:04:19 60° NNW 15:14:22 10° NE daylight
20 Dec - 17:02:02 10° WNW 17:11:19 38° N 17:20:36 10° ENE daylight
20 Dec - 19:08:40 10° NW 19:18:32 52° NNE 19:28:13 10° E daylight
20 Dec - 21:14:05 10° WNW 21:24:07 69° SW 21:33:52 10° SE daylight
20 Dec - 23:22:10 10° W 23:27:52 17° WSW 23:33:30 10° SSW visible
21 Dec - 12:27:58 10° SSW 12:37:20 51° SE 12:46:57 10° ENE visible
21 Dec - 14:32:32 10° WSW 14:42:24 62° NNW 14:52:29 10° NE daylight
21 Dec - 16:40:03 10° WNW 16:49:20 39° N 16:58:38 10° ENE daylight
21 Dec - 18:46:47 10° NW 18:56:36 50° NNE 19:06:17 10° E daylight
21 Dec - 20:52:11 10° WNW 21:02:16 72° SW 21:12:06 10° SE daylight
21 Dec - 22:59:55 10° W 23:06:06 18° WSW 23:12:12 10° SSW visible
22 Dec - 12:06:17 10° SSW 12:15:31 48° SE 12:25:01 10° ENE visible
22 Dec - 14:10:38 10° WSW 14:20:29 64° NNW 14:30:36 10° NE daylight
22 Dec - 16:18:04 10° WNW 16:27:21 39° N 16:36:41 10° ENE daylight
22 Dec - 18:24:52 10° NW 18:34:39 49° NNE 18:44:19 10° E daylight
22 Dec - 20:30:18 10° NW 20:40:26 76° SW 20:50:18 10° SE daylight
22 Dec - 22:37:42 10° W 22:44:19 20° WSW 22:50:51 10° SSW daylight
23 Dec - 11:44:36 10° SSW 11:53:43 45° SE 12:03:03 10° ENE visible
23 Dec - 13:48:43 10° WSW 13:58:35 66° NNW 14:08:42 10° NE daylight
23 Dec - 15:56:06 10° WNW 16:05:22 39° N 16:14:43 10° ENE daylight
23 Dec - 18:02:58 10° NW 18:12:42 48° NNE 18:22:20 10° E daylight
23 Dec - 20:08:24 10° NW 20:18:34 79° SW 20:28:31 10° SE daylight
23 Dec - 22:15:33 10° W 22:22:33 22° SW 22:29:28 10° S daylight
24 Dec - 11:22:56 10° SSW 11:31:54 43° SE 11:41:07 10° ENE visible
24 Dec - 13:26:49 10° WSW 13:36:41 69° NNW 13:46:50 10° NE daylight
24 Dec - 15:34:07 10° WNW 15:43:24 40° N 15:52:46 10° ENE daylight
24 Dec - 17:41:04 10° NW 17:50:45 46° NNE 18:00:22 10° E daylight
24 Dec - 19:46:31 10° NW 19:56:43 83° SW 20:06:41 10° SE daylight
24 Dec - 21:53:25 10° WNW 22:00:46 24° SW 22:08:02 10° S daylight
25 Dec - 11:01:18 10° SSW 11:10:06 40° SE 11:19:09 10° ENE visible
25 Dec - 13:04:56 10° WSW 13:14:47 71° NNW 13:24:56 10° NE daylight
25 Dec - 15:12:09 10° WNW 15:21:25 40° N 15:30:49 10° ENE daylight
25 Dec - 17:19:09 10° NW 17:28:48 45° NNE 17:38:23 10° E daylight
25 Dec - 19:24:37 10° NW 19:34:51 86° SW 19:44:52 10° SE daylight
25 Dec - 21:31:19 10° WNW 21:38:59 25° SW 21:46:33 10° S daylight
26 Dec - 10:39:40 10° SSW 10:48:18 38° SE 10:57:11 10° ENE visible
26 Dec - 12:43:03 10° WSW 12:52:54 74° NNW 13:03:04 10° NE daylight
26 Dec - 14:50:10 10° WNW 14:59:27 40° N 15:08:52 10° ENE daylight
26 Dec - 16:57:15 10° NW 17:06:50 44° NNE 17:16:24 10° E daylight
26 Dec - 19:02:44 10° NW 19:12:58 89° SW 19:23:01 10° SE daylight
26 Dec - 21:09:15 10° WNW 21:17:12 27° SW 21:25:02 10° S daylight
